Time,TemperatureF,DewpointF,PressureIn,WindDirection,WindDirectionDegrees,WindSpeedMPH,WindSpeedGustMPH,Humidity,HourlyPrecipIn,Conditions,Clouds,dailyrainin,SoftwareType,DateUTC
2013-04-15 00:03:00,61.0,36.0,30.20,ENE,60,2.0,3.0,40,0.00,,,0.00,,2013-04-15 04:03:00,
2013-04-15 00:12:00,61.0,36.0,30.20,ENE,60,2.0,3.0,40,0.00,,,0.00,,2013-04-15 04:12:00,
2013-04-15 00:22:00,62.0,37.0,30.20,ENE,60,2.0,2.0,39,0.00,,,0.00,,2013-04-15 04:22:00,
2013-04-15 00:33:00,62.0,35.0,30.20,ENE,61,0.0,2.0,37,0.00,,,0.00,,2013-04-15 04:33:00,
2013-04-15 00:42:00,62.0,35.0,30.20,ENE,61,0.0,2.0,37,0.00,,,0.00,,2013-04-15 04:42:00,
2013-04-15 00:52:00,61.0,36.0,30.20,ENE,60,0.0,0.0,40,0.00,,,0.00,,2013-04-15 04:52:00,
2013-04-15 01:02:00,62.0,37.0,30.20,ENE,60,1.0,3.0,40,0.00,,,0.00,,2013-04-15 05:02:00,
2013-04-15 01:12:00,62.0,37.0,30.20,ENE,60,1.0,3.0,40,0.00,,,0.00,,2013-04-15 05:12:00,
2013-04-15 01:22:00,62.0,37.0,30.20,ENE,61,2.0,3.0,40,0.00,,,0.00,,2013-04-15 05:22:00,
2013-04-15 01:32:00,63.0,38.0,30.21,ENE,61,0.0,0.0,40,0.00,,,0.00,,2013-04-15 05:32:00,
2013-04-15 01:42:00,63.0,38.0,30.21,ENE,61,0.0,0.0,40,0.00,,,0.00,,2013-04-15 05:42:00,
2013-04-15 01:52:00,63.0,38.0,30.21,ENE,61,0.0,0.0,40,0.00,,,0.00,,2013-04-15 05:52:00,
2013-04-15 02:01:00,63.0,36.0,30.21,ENE,61,0.0,0.0,37,0.00,,,0.00,,2013-04-15 06:01:00,
2013-04-15 02:11:00,63.0,36.0,30.21,ENE,61,0.0,0.0,37,0.00,,,0.00,,2013-04-15 06:11:00,
2013-04-15 02:22:00,64.0,38.0,30.21,ENE,61,0.0,0.0,38,0.00,,,0.00,,2013-04-15 06:22:00,
2013-04-15 02:32:00,66.0,38.0,30.21,ENE,61,0.0,0.0,35,0.00,,,0.00,,2013-04-15 06:32:00,
2013-04-15 02:42:00,66.0,38.0,30.21,ENE,61,0.0,0.0,35,0.00,,,0.00,,2013-04-15 06:42:00,
2013-04-15 02:52:00,66.0,38.0,30.21,ENE,61,0.0,0.0,35,0.00,,,0.00,,2013-04-15 06:52:00,
2013-04-15 03:02:00,67.0,39.0,30.21,ENE,61,0.0,1.0,36,0.00,,,0.00,,2013-04-15 07:02:00,
2013-04-15 03:42:00,70.0,34.0,30.20,ENE,61,0.0,1.0,27,0.00,,,0.00,,2013-04-15 07:42:00,
2013-04-15 03:52:00,69.0,39.0,30.20,ENE,61,3.0,3.0,33,0.00,,,0.00,,2013-04-15 07:52:00,
2013-04-15 04:02:00,67.0,38.0,30.19,NNE,32,3.0,4.0,35,0.00,,,0.00,,2013-04-15 08:02:00,
2013-04-15 04:11:00,67.0,38.0,30.19,NNE,32,3.0,4.0,35,0.00,,,0.00,,2013-04-15 08:11:00,
2013-04-15 04:21:00,67.0,36.0,30.19,WNW,295,3.0,3.0,32,0.00,,,0.00,,2013-04-15 08:21:00,
2013-04-15 04:32:00,68.0,34.0,30.19,West,266,0.0,4.0,28,0.00,,,0.00,,2013-04-15 08:32:00,
2013-04-15 04:42:00,68.0,34.0,30.19,West,266,0.0,4.0,28,0.00,,,0.00,,2013-04-15 08:42:00,
2013-04-15 04:51:00,67.0,42.0,30.19,West,261,8.0,8.0,40,0.00,,,0.00,,2013-04-15 08:51:00,
2013-04-15 05:02:00,68.0,39.0,30.19,WNW,295,3.0,5.0,35,0.00,,,0.00,,2013-04-15 09:02:00,
2013-04-15 05:12:00,68.0,39.0,30.19,WNW,295,3.0,5.0,35,0.00,,,0.00,,2013-04-15 09:12:00,
2013-04-15 05:22:00,68.0,39.0,30.19,West,262,4.0,7.0,34,0.00,,,0.00,,2013-04-15 09:22:00,
2013-04-15 05:32:00,68.0,39.0,30.19,SW,236,4.0,6.0,35,0.00,,,0.00,,2013-04-15 09:32:00,
2013-04-15 05:42:00,68.0,39.0,30.19,SW,236,4.0,6.0,35,0.00,,,0.00,,2013-04-15 09:42:00,
2013-04-15 05:52:00,69.0,38.0,30.19,WSW,240,3.0,6.0,32,0.00,,,0.00,,2013-04-15 09:52:00,
2013-04-15 06:02:00,69.0,36.0,30.18,WSW,243,1.0,4.0,30,0.00,,,0.00,,2013-04-15 10:02:00,
2013-04-15 06:12:00,69.0,36.0,30.18,WSW,243,1.0,4.0,30,0.00,,,0.00,,2013-04-15 10:12:00,
2013-04-15 06:22:00,69.0,36.0,30.18,WSW,243,1.0,4.0,30,0.00,,,0.00,,2013-04-15 10:22:00,
2013-04-15 06:32:00,68.0,39.0,30.18,South,189,5.0,8.0,35,0.00,,,0.00,,2013-04-15 10:32:00,
2013-04-15 06:42:00,68.0,39.0,30.18,South,189,5.0,8.0,35,0.00,,,0.00,,2013-04-15 10:42:00,
2013-04-15 06:52:00,68.0,37.0,30.18,SW,231,5.0,8.0,32,0.00,,,0.00,,2013-04-15 10:52:00,
2013-04-15 07:02:00,69.0,41.0,30.18,WSW,256,5.0,10.0,36,0.00,,,0.00,,2013-04-15 11:02:00,
2013-04-15 07:11:00,69.0,41.0,30.18,WSW,256,5.0,10.0,36,0.00,,,0.00,,2013-04-15 11:11:00,
2013-04-15 07:22:00,68.0,41.0,30.17,WSW,250,11.0,12.0,38,0.00,,,0.00,,2013-04-15 11:22:00,
2013-04-15 07:32:00,68.0,43.0,30.17,WSW,238,10.0,10.0,40,0.00,,,0.00,,2013-04-15 11:32:00,
2013-04-15 07:42:00,68.0,43.0,30.17,WSW,238,10.0,10.0,40,0.00,,,0.00,,2013-04-15 11:42:00,
2013-04-15 07:52:00,68.0,43.0,30.17,WSW,238,10.0,10.0,40,0.00,,,0.00,,2013-04-15 11:52:00,
2013-04-15 08:03:00,69.0,39.0,30.16,WNW,286,3.0,10.0,34,0.00,,,0.00,,2013-04-15 12:03:00,
2013-04-15 08:13:00,69.0,39.0,30.16,WNW,286,3.0,10.0,34,0.00,,,0.00,,2013-04-15 12:13:00,
2013-04-15 08:23:00,69.0,41.0,30.16,NNW,337,7.0,11.0,36,0.00,,,0.00,,2013-04-15 12:23:00,
2013-04-15 08:33:00,69.0,41.0,30.16,NNW,337,7.0,11.0,36,0.00,,,0.00,,2013-04-15 12:33:00,
2013-04-15 08:42:00,69.0,41.0,30.16,NNW,337,7.0,11.0,36,0.00,,,0.00,,2013-04-15 12:42:00,
2013-04-15 08:52:00,69.0,42.0,30.15,WSW,254,5.0,11.0,38,0.00,,,0.00,,2013-04-15 12:52:00,
2013-04-15 09:03:00,69.0,42.0,30.15,WSW,254,5.0,11.0,38,0.00,,,0.00,,2013-04-15 13:03:00,
2013-04-15 09:12:00,69.0,42.0,30.15,WSW,254,5.0,11.0,38,0.00,,,0.00,,2013-04-15 13:12:00,
2013-04-15 09:22:00,69.0,42.0,30.15,WSW,254,5.0,11.0,38,0.00,,,0.00,,2013-04-15 13:22:00,
2013-04-15 09:53:00,69.0,44.0,30.13,WNW,299,4.0,13.0,41,0.00,,,0.00,,2013-04-15 13:53:00,
2013-04-15 10:04:00,69.0,45.0,30.12,WNW,288,10.0,12.0,42,0.00,,,0.00,,2013-04-15 14:04:00,
2013-04-15 10:12:00,69.0,45.0,30.12,WNW,288,10.0,12.0,42,0.00,,,0.00,,2013-04-15 14:12:00,
2013-04-15 10:21:00,69.0,45.0,30.12,WNW,288,10.0,12.0,42,0.00,,,0.00,,2013-04-15 14:21:00,
2013-04-15 10:32:00,68.0,42.0,30.12,WNW,283,9.0,16.0,39,0.00,,,0.00,,2013-04-15 14:32:00,
2013-04-15 10:42:00,68.0,42.0,30.12,WNW,283,9.0,16.0,39,0.00,,,0.00,,2013-04-15 14:42:00,
2013-04-15 10:54:00,68.0,49.0,30.12,WNW,301,10.0,14.0,50,0.00,,,0.00,,2013-04-15 14:54:00,
2013-04-15 11:03:00,67.0,48.0,30.11,WNW,289,10.0,14.0,51,0.00,,,0.00,,2013-04-15 15:03:00,
2013-04-15 11:12:00,67.0,48.0,30.11,WNW,289,10.0,14.0,51,0.00,,,0.00,,2013-04-15 15:12:00,
2013-04-15 11:22:00,67.0,49.0,30.11,West,272,10.0,13.0,53,0.00,,,0.00,,2013-04-15 15:22:00,
2013-04-15 11:34:00,67.0,49.0,30.11,NW,310,4.0,12.0,52,0.00,,,0.00,,2013-04-15 15:34:00,
2013-04-15 11:42:00,67.0,49.0,30.11,NW,310,4.0,12.0,52,0.00,,,0.00,,2013-04-15 15:42:00,
2013-04-15 11:53:00,68.0,48.0,30.11,WNW,296,12.0,12.0,48,0.00,,,0.00,,2013-04-15 15:53:00,
2013-04-15 12:03:00,68.0,45.0,30.11,NW,323,3.0,9.0,44,0.00,,,0.00,,2013-04-15 16:03:00,
2013-04-15 12:13:00,68.0,45.0,30.11,NW,323,3.0,9.0,44,0.00,,,0.00,,2013-04-15 16:13:00,
2013-04-15 12:22:00,68.0,41.0,30.11,WNW,303,7.0,11.0,38,0.00,,,0.00,,2013-04-15 16:22:00,
2013-04-15 12:32:00,68.0,43.0,30.11,WNW,297,3.0,10.0,40,0.00,,,0.00,,2013-04-15 16:32:00,
2013-04-15 12:43:00,68.0,43.0,30.11,WNW,297,3.0,10.0,40,0.00,,,0.00,,2013-04-15 16:43:00,
2013-04-15 12:52:00,68.0,42.0,30.11,NW,304,8.0,13.0,39,0.00,,,0.00,,2013-04-15 16:52:00,
2013-04-15 13:03:00,68.0,41.0,30.10,WNW,286,1.0,7.0,37,0.00,,,0.00,,2013-04-15 17:03:00,
2013-04-15 13:12:00,68.0,41.0,30.10,WNW,286,1.0,7.0,37,0.00,,,0.00,,2013-04-15 17:12:00,
2013-04-15 13:21:00,68.0,41.0,30.10,WNW,286,1.0,7.0,37,0.00,,,0.00,,2013-04-15 17:21:00,
2013-04-15 13:32:00,67.0,37.0,30.11,NW,309,3.0,7.0,33,0.00,,,0.00,,2013-04-15 17:32:00,
2013-04-15 13:43:00,67.0,37.0,30.11,NW,309,3.0,7.0,33,0.00,,,0.00,,2013-04-15 17:43:00,
2013-04-15 13:52:00,67.0,35.0,30.11,NNW,334,2.0,4.0,31,0.00,,,0.00,,2013-04-15 17:52:00,
2013-04-15 14:02:00,66.0,39.0,30.11,NW,325,3.0,4.0,37,0.00,,,0.00,,2013-04-15 18:02:00,
2013-04-15 14:11:00,66.0,39.0,30.11,NW,325,3.0,4.0,37,0.00,,,0.00,,2013-04-15 18:11:00,
2013-04-15 14:22:00,66.0,39.0,30.11,NW,325,3.0,4.0,37,0.00,,,0.00,,2013-04-15 18:22:00,
2013-04-15 14:32:00,65.0,37.0,30.11,NW,313,2.0,3.0,35,0.00,,,0.00,,2013-04-15 18:32:00,
2013-04-15 14:41:00,65.0,37.0,30.11,NW,313,2.0,3.0,35,0.00,,,0.00,,2013-04-15 18:41:00,
2013-04-15 14:52:00,65.0,37.0,30.11,NW,313,2.0,3.0,35,0.00,,,0.00,,2013-04-15 18:52:00,
2013-04-15 15:01:00,64.0,39.0,30.12,NNW,348,3.0,4.0,39,0.00,,,0.00,,2013-04-15 19:01:00,
2013-04-15 15:11:00,64.0,39.0,30.12,NNW,348,3.0,4.0,39,0.00,,,0.00,,2013-04-15 19:11:00,
2013-04-15 15:22:00,64.0,39.0,30.13,North,355,5.0,5.0,39,0.00,,,0.00,,2013-04-15 19:22:00,
2013-04-15 15:33:00,64.0,38.0,30.13,North,5,3.0,4.0,38,0.00,,,0.00,,2013-04-15 19:33:00,
2013-04-15 15:42:00,64.0,38.0,30.13,North,5,3.0,4.0,38,0.00,,,0.00,,2013-04-15 19:42:00,
2013-04-15 15:54:00,64.0,39.0,30.13,NNE,21,3.0,4.0,40,0.00,,,0.00,,2013-04-15 19:54:00,
2013-04-15 16:02:00,64.0,39.0,30.13,NNE,32,4.0,5.0,39,0.00,,,0.00,,2013-04-15 20:02:00,
2013-04-15 16:11:00,64.0,39.0,30.13,NNE,32,4.0,5.0,39,0.00,,,0.00,,2013-04-15 20:11:00,
2013-04-15 16:21:00,64.0,39.0,30.13,NNE,32,4.0,5.0,39,0.00,,,0.00,,2013-04-15 20:21:00,
2013-04-15 16:32:00,64.0,39.0,30.13,NNE,32,4.0,5.0,39,0.00,,,0.00,,2013-04-15 20:32:00,
2013-04-15 16:52:00,64.0,43.0,30.14,NNE,32,3.0,4.0,46,0.00,,,0.00,,2013-04-15 20:52:00,
2013-04-15 17:02:00,63.0,44.0,30.14,NNE,32,1.0,3.0,49,0.00,,,0.00,,2013-04-15 21:02:00,
2013-04-15 17:11:00,63.0,44.0,30.14,NNE,32,1.0,3.0,49,0.00,,,0.00,,2013-04-15 21:11:00,
2013-04-15 17:21:00,62.0,45.0,30.13,NNE,32,2.0,2.0,54,0.00,,,0.00,,2013-04-15 21:21:00,
2013-04-15 17:32:00,63.0,45.0,30.13,NNE,32,1.0,3.0,52,0.00,,,0.00,,2013-04-15 21:32:00,
2013-04-15 17:42:00,63.0,45.0,30.13,NNE,32,1.0,3.0,52,0.00,,,0.00,,2013-04-15 21:42:00,
2013-04-15 17:52:00,62.0,45.0,30.14,NNE,32,0.0,1.0,53,0.00,,,0.00,,2013-04-15 21:52:00,
2013-04-15 18:02:00,62.0,45.0,30.14,NNE,32,0.0,1.0,53,0.00,,,0.00,,2013-04-15 22:02:00,
2013-04-15 18:12:00,62.0,45.0,30.14,NNE,32,0.0,1.0,53,0.00,,,0.00,,2013-04-15 22:12:00,
2013-04-15 18:22:00,62.0,45.0,30.14,NNE,32,0.0,1.0,53,0.00,,,0.00,,2013-04-15 22:22:00,
2013-04-15 18:33:00,62.0,44.0,30.13,NNE,32,0.0,1.0,52,0.00,,,0.00,,2013-04-15 22:33:00,
2013-04-15 18:42:00,62.0,44.0,30.13,NNE,32,0.0,1.0,52,0.00,,,0.00,,2013-04-15 22:42:00,
2013-04-15 18:52:00,62.0,45.0,30.13,NNE,32,0.0,0.0,54,0.00,,,0.00,,2013-04-15 22:52:00,
2013-04-15 19:02:00,62.0,47.0,30.13,NNE,32,0.0,0.0,57,0.00,,,0.00,,2013-04-15 23:02:00,
2013-04-15 19:11:00,62.0,47.0,30.13,NNE,32,0.0,0.0,57,0.00,,,0.00,,2013-04-15 23:11:00,
2013-04-15 19:22:00,62.0,47.0,30.13,NNE,32,0.0,0.0,57,0.00,,,0.00,,2013-04-15 23:22:00,
2013-04-15 19:32:00,62.0,50.0,30.12,NNE,32,2.0,2.0,64,0.00,,,0.00,,2013-04-15 23:32:00,
2013-04-15 19:42:00,62.0,50.0,30.12,NNE,32,2.0,2.0,64,0.00,,,0.00,,2013-04-15 23:42:00,
2013-04-15 19:52:00,62.0,50.0,30.12,NNE,32,2.0,2.0,64,0.00,,,0.00,,2013-04-15 23:52:00,
2013-04-15 20:02:00,62.0,52.0,30.12,NNE,32,0.0,0.0,69,0.00,,,0.00,,2013-04-16 00:02:00,
2013-04-15 20:11:00,62.0,52.0,30.12,NNE,32,0.0,0.0,69,0.00,,,0.00,,2013-04-16 00:11:00,
2013-04-15 20:22:00,61.0,51.0,30.11,NNE,32,0.0,0.0,70,0.00,,,0.00,,2013-04-16 00:22:00,
2013-04-15 20:31:00,61.0,51.0,30.11,NNE,32,0.0,0.0,70,0.00,,,0.00,,2013-04-16 00:31:00,
2013-04-15 20:41:00,61.0,51.0,30.11,NNE,32,0.0,0.0,70,0.00,,,0.00,,2013-04-16 00:41:00,
2013-04-15 20:52:00,61.0,52.0,30.11,NNE,32,0.0,0.0,73,0.00,,,0.00,,2013-04-16 00:52:00,
2013-04-15 21:02:00,61.0,52.0,30.11,NNE,32,0.0,0.0,72,0.00,,,0.00,,2013-04-16 01:02:00,
2013-04-15 21:12:00,61.0,51.0,30.10,NNE,32,0.0,0.0,70,0.00,,,0.00,,2013-04-16 01:12:00,
2013-04-15 21:21:00,61.0,51.0,30.10,NNE,32,0.0,0.0,70,0.00,,,0.00,,2013-04-16 01:21:00,
2013-04-15 21:32:00,61.0,50.0,30.10,NE,40,1.0,3.0,68,0.00,,,0.00,,2013-04-16 01:32:00,
2013-04-15 21:41:00,61.0,50.0,30.10,NE,40,1.0,3.0,68,0.00,,,0.00,,2013-04-16 01:41:00,
2013-04-15 21:51:00,61.0,50.0,30.10,NE,43,0.0,0.0,67,0.00,,,0.00,,2013-04-16 01:51:00,
2013-04-15 22:02:00,61.0,49.0,30.10,East,95,4.0,5.0,65,0.00,,,0.00,,2013-04-16 02:02:00,
2013-04-15 22:11:00,61.0,49.0,30.10,East,95,4.0,5.0,65,0.00,,,0.00,,2013-04-16 02:11:00,
2013-04-15 22:21:00,61.0,48.0,30.09,East,96,3.0,5.0,63,0.00,,,0.00,,2013-04-16 02:21:00,
2013-04-15 22:32:00,61.0,49.0,30.09,East,96,0.0,0.0,64,0.00,,,0.00,,2013-04-16 02:32:00,
2013-04-15 22:42:00,61.0,49.0,30.09,East,96,0.0,0.0,64,0.00,,,0.00,,2013-04-16 02:42:00,
2013-04-15 22:51:00,60.0,48.0,30.09,East,96,0.0,0.0,65,0.00,,,0.00,,2013-04-16 02:51:00,
2013-04-15 23:02:00,60.0,48.0,30.09,East,96,0.0,0.0,65,0.00,,,0.00,,2013-04-16 03:02:00,
2013-04-15 23:11:00,60.0,48.0,30.09,East,96,0.0,0.0,65,0.00,,,0.00,,2013-04-16 03:11:00,
2013-04-15 23:22:00,60.0,48.0,30.09,East,96,0.0,0.0,65,0.00,,,0.00,,2013-04-16 03:22:00,
2013-04-15 23:52:00,60.0,47.0,30.10,East,96,0.0,0.0,62,0.00,,,0.00,,2013-04-16 03:52:00,